Regional Weather Roundup
Issued by NWS State College, PA

Home | Current Version | Previous Version | Graphics & Text | Print | Product List | Glossary On
Versions: 1 2 3 4 5 6 7 8 9 10 11 12 13 14 15 16 17 18 19 20 21 22 23 24 25 26 27 28 29 30 31 32 33 34 35 36 37 38 39 40 41 42 43 44 45 46 47 48 49 50
000
ASUS41 KCTP 290410
RWRCTP

REGIONAL WEATHER ROUNDUP
NATIONAL WEATHER SERVICE STATE COLLEGE PA
1100 PM EST SUN DEC 28 2014

Note: "fair" indicates few or no clouds below 12,000 feet with no
significant weather and/or obstructions to visibility.

* = STATION THAT DOES NOT REPORT PRECIPITATION /E.G. RAIN...SNOW...ETC/
    THUNDER OR FOG.

PAZ002>004-007>009-013>016-020>023-029>032-290500-
WESTERN PENNSYLVANIA

CITY           SKY/WX    TMP DP  RH WIND       PRES   REMARKS
ERIE           PTCLDY    35  22  58 NW8       30.16R
MEADVILLE      CLOUDY    32  28  85 NW5       30.12R
FRANKLIN*      CLOUDY    30  27  86 NW6       30.14R
NEW CASTLE       N/A     32  30  92 CALM      30.17R
BEAVER COUNTY  NOT AVBL
BUTLER*        CLOUDY    30  28  93 CALM      30.16R
PITTSBURGH INT CLOUDY    34  30  85 W3        30.15R
PITTSBURGH     CLOUDY    34  27  75 N3        30.13R
INDIANA*       CLOUDY    34  32  93 NW3       30.16R
LATROBE        CLOUDY    34  34 100 CALM      30.16R
WASHINGTON CO* NOT AVBL
$$

PAZ004>006-010>012-017>019-024>028-033>037-041-042-045-046-049>053-290500-
CENTRAL PENNSYLVANIA

CITY           SKY/WX    TMP DP  RH WIND       PRES   REMARKS
BRADFORD       CLOUDY    30  24  78 W3        30.06R
DUBOIS         CLOUDY    30  27  88 W6        30.09R
CLEARFIELD     CLOUDY    32  24  72 W6        30.12R
JOHNSTOWN      CLOUDY    31  28  89 N7        30.07R
ALTOONA        CLOUDY    35  30  82 NW7       30.11R
STATE COLLEGE  CLOUDY    34  24  66 NW5       30.11F
WILLIAMSPORT   MOCLDY    37  25  61 NW6       30.11S
SELINSGROVE    CLOUDY    40  26  57 NW6       30.12R
FT INDIANTOWN  CLOUDY    42  30  62 N8        30.11R
CAPITAL CITY   CLOUDY    43  30  60 W7        30.11R
HARRISBURG     CLOUDY    41  31  67 NW6       30.10R
YORK           CLOUDY    42  30  62 N5        30.10S
$$

PAZ038>040-043-044-047-048-054-055-060>062-067>071-290500-
EASTERN PENNSYLVANIA

CITY           SKY/WX    TMP DP  RH WIND       PRES   REMARKS
SCRANTON       MOCLDY    36  24  62 NW15      30.08R
MOUNT POCONO   CLOUDY    32  25  75 NW13G21   30.01S
ALLENTOWN      CLOUDY    42  31  64 N9        30.09R
QUAKERTOWN*    CLOUDY    41  32  70 N7        30.08R
READING        CLOUDY    42  31  64 NW8       30.08R
LANCASTER      CLOUDY    41  32  70 NW9       30.09R
COATESVILLE    CLOUDY    45  36  70 NW8       30.08R
POTTSTOWN      CLOUDY    43  33  68 NW8       30.09R
BLUE BELL      CLOUDY    46  36  66 CALM      30.06S
DOYLESTOWN     CLOUDY    42  33  70 N7        30.06R
WILLOW GROVE   NOT AVBL
NORTH PHILA    CLOUDY    48  33  56 N8        30.08R
PHILADELPHIA   LGT RAIN  49  38  65 NW8       30.08R
$$



USA.gov is the U.S. government's official web portal to all federal, state and local government web resources and services.